Regional Weather Roundup
Issued by NWS Albany, NY

Home | Current Version | Previous Version | Graphics & Text | Print | Product List | Glossary Off
Versions: 1 2 3 4 5 6 7 8 9 10 11 12 13 14 15 16 17 18 19 20 21 22 23 24 25 26 27 28 29 30 31 32 33 34 35 36 37 38 39 40 41 42 43 44 45 46 47 48 49

635
ASUS41 KALY 071810
RWRALY

NEW YORK STATE HOURLY WEATHER ROUNDUP
NATIONAL WEATHER SERVICE ALBANY NY
100 PM EST SUN FEB 07 2016

NOTE: "FAIR" INDICATES FEW OR NO CLOUDS BELOW 12,000 FEET WITH NO
SIGNIFICANT WEATHER AND/OR NO OBSTRUCTIONS TO VISIBILITY.

NYZ032-033-038>043-046>054-057>066-NYZ062>081-071900-
EAST


CITY           SKY/WX    TMP DP  RH WIND       PRES   REMARKS
ALBANY         MOSUNNY   44  19  36 N8        30.14F
GLENS FALLS    CLOUDY    41  22  46 SW3       30.14R
POUGHKEEPSIE   SUNNY     47  17  30 CALM      30.10F
NEWBURGH       SUNNY     45  19  36 VRB5      30.10F
MONTGOMERY     SUNNY     46  21  37 SE3       30.08F
WHITE PLAINS   SUNNY     45  18  34 CALM      30.09F
ISLIP          CLOUDY    42  26  53 SE7       30.12F
NEW YORK CITY  CLOUDY    46  22  38 NE3       30.12F
CENTRAL PARK   MOSUNNY   45  19  35 VRB3      30.14F
$$

NYZ005>009-017-018-044>046-055-056-071900-
CENTRAL


CITY           SKY/WX    TMP DP  RH WIND       PRES   REMARKS
FULTON         PTSUNNY   44  26  49 S12       30.06F
SYRACUSE       MOSUNNY   41  23  48 E7        30.06F
ROME           SUNNY     40  24  53 S7        30.11F
ELMIRA         SUNNY     44  24  45 SW8       30.05F
BINGHAMTON     SUNNY     40  21  46 S8        30.03F WCI  34
MONTICELLO     SUNNY     41  21  45 W5        30.06F
$$

NYZ026>034-041>043-071900-
NORTH


CITY           SKY/WX    TMP DP  RH WIND       PRES   REMARKS
WATERTOWN      CLOUDY    37  27  67 SE6       30.08F WCI  32
FORT DRUM      NOT AVBL
MASSENA        CLOUDY    29  21  72 NE13      30.14F WCI  19
SARANAC LAKE   CLOUDY    31  20  63 VRB3      30.02S
PLATTSBURGH    CLOUDY    28  17  63 N12       30.17R WCI  18
$$

NYZ001>004-010>016-019>021-071900-
WEST


CITY           SKY/WX    TMP DP  RH WIND       PRES   REMARKS
NIAGARA FALLS  MOSUNNY   45  27  49 S9        29.98F
BUFFALO        MOSUNNY   44  27  51 S9        29.98F
DUNKIRK        SUNNY     45  28  51 S16       29.97F
JAMESTOWN      SUNNY     41  23  48 SW7       29.95F
WELLSVILLE     SUNNY     41  24  51 S8        29.99F
ROCHESTER      MOSUNNY   43  26  51 S10       30.02F
PENN YAN       SUNNY     41  22  46 S7        30.03F
$$

             KEY
       WCI = WIND CHILL INDEX
       VSB = VISIBILITY
       HX  = HEAT INDEX
$$




USA.gov is the U.S. government's official web portal to all federal, state and local government web resources and services.